Temperature
14 15 16 16 16 16 16 16 16 16 16 16 16 15 15 16 16 16 16 17 17 17 17 17 17 17 17 16 16 16 16 16 16 16 16 16 16 16 16 17 17 17 17
15 15 16 16 16 16 16 16 16 16 16 16 16 15 15 15 16 16 16 16 17 17 17 17 17 17 17 17 16 16 16 16 15 15 16 16 16 16 16 16 16 16 16
15 15 16 16 16 16 16 16 16 16 16 16 16 16 16 16 16 16 16 17 17 17 17 17 17 17 17 17 17 16 16 15 15 15 15 16 16 16 16 16 16 16 16
15 15 16 16 16 16 16 16 16 16 16 16 16 16 16 16 16 16 16 16 17 17 17 17 17 17 17 17 17 16 16 16 15 15 15 15 15 15 15 15 15 15 15
15 15 15 15 16 16 16 16 16 16 15 15 15 15 15 15 15 15 15 16 16 16 16 17 17 16 16 16 16 16 16 16 16 15 15 15 15 15 14 15 15 16 16
15 15 15 15 16 16 16 16 16 15 15 15 14 14 14 14 14 14 14 15 15 15 15 15 16 16 16 16 16 16 16 16 16 16 15 15 15 15 14 14 14 15 16
15 15 15 15 15 15 15 15 15 15 14 14 14 13 13 13 13 13 13 13 14 14 14 14 14 14 15 15 15 15 16 16 16 16 16 15 15 14 14 14 13 13 15
15 15 15 15 15 15 14 14 14 14 14 13 13 13 13 13 13 12 12 12 12 12 13 13 13 13 13 14 14 15 15 15 15 16 15 15 15 14 14 14 13 13 13
15 15 15 14 14 14 14 13 13 13 13 13 13 13 12 12 12 12 12 12 12 11 12 12 12 12 12 12 13 13 14 14 14 15 15 15 15 15 14 14 13 13 12
15 14 14 14 13 13 13 13 13 13 13 13 12 12 12 12 12 11 11 11 11 11 11 11 11 11 11 12 12 12 13 13 13 14 14 14 15 14 14 14 14 13 13
14 14 13 13 13 12 12 12 12 12 12 12 12 12 12 12 11 11 11 11 11 10 10 10 10 10 11 11 11 11 12 12 13 13 13 14 14 14 14 14 14 13 13
13 13 13 12 12 12 12 12 12 12 12 11 11 11 11 11 11 11 11 10 10 10 10 10 10 10 10 10 10 11 11 11 12 12 12 13 13 13 14 14 13 13 13
13 12 12 12 11 11 11 11 11 11 11 11 11 11 11 11 11 11 11 10 10 10 10 10 9 9 9 9 9 9 10 10 11 11 11 12 12 12 13 13 13 13 13
12 11 11 11 10 10 10 10 9 9 9 10 10 10 10 10 10 10 10 10 10 10 10 10 9 9 9 9 9 9 9 9 10 10 10 11 11 12 12 13 13 13 13
11 10 10 9 9 9 8 8 8 8 8 8 8 8 9 9 10 10 10 10 10 10 10 9 9 9 9 9 9 9 9 9 9 9 10 10 11 11 12 12 13 13 13
10 9 9 8 8 7 7 6 6 6 6 6 6 7 7 8 8 9 9 9 9 9 9 9 9 9 9 9 9 9 9 8 9 9 9 10 10 10 11 12 12 13 13
9 8 8 7 7 6 6 5 5 5 5 5 5 5 6 6 7 7 8 8 8 9 9 9 9 9 8 8 8 8 8 8 8 9 9 9 10 10 11 11 12 12 12
8 8 7 6 6 6 5 5 5 5 5 5 5 5 5 5 5 5 6 6 7 7 8 8 8 8 8 8 8 8 8 8 8 9 9 9 9 10 10 11 11 12 12
8 7 7 6 6 5 5 5 5 5 4 4 4 4 4 4 4 5 5 5 6 6 7 7 7 7 8 8 8 8 8 8 8 8 8 9 9 9 10 10 11 11 12
7 7 6 6 6 5 5 5 5 4 4 4 4 4 4 4 4 4 4 4 5 5 6 6 6 7 7 7 7 7 8 8 8 8 8 8 9 9 9 10 10 11 12
7 6 6 6 6 5 5 5 5 5 4 4 4 4 4 4 4 4 4 4 4 5 5 5 6 6 6 7 7 7 7 8 8 8 8 8 8 9 9 9 10 11 11
7 6 6 6 6 6 5 5 5 5 5 4 4 4 4 4 4 4 4 4 4 4 4 5 5 6 6 6 7 7 7 7 8 8 8 8 8 8 9 9 10 10 10
7 6 6 6 6 6 5 5 5 5 5 5 5 4 4 4 4 4 4 4 4 4 4 4 5 5 6 6 6 7 7 7 7 8 8 8 8 8 8 9 9 9 10
7 6 6 6 6 6 6 6 6 5 5 5 5 5 4 4 4 4 4 4 4 4 4 4 4 5 5 6 6 6 7 7 7 7 7 7 8 8 8 9 9 9 10
7 6 6 6 6 6 6 6 6 5 5 5 5 5 5 4 4 4 4 4 4 4 4 4 4 4 5 6 6 6 7 7 7 7 7 7 7 8 8 8 8 9 9
7 7 7 7 7 6 6 6 6 6 5 5 5 5 5 5 4 4 4 4 4 4 4 4 4 5 5 5 6 6 7 7 7 7 7 7 7 7 7 8 8 8 9
Wind_Speed
7 7 8 8 8 8 9 9 8 9 8 5 5 4 3 2 2 3 5 7 8 8 7 6 6 6 5 5 5 3 3 3 2 1 2 2 3 4 5 5 5 5 6
9 9 9 9 8 8 8 8 8 8 8 5 3 2 2 2 2 3 4 4 5 7 6 7 6 7 5 5 5 4 3 2 3 3 1 2 2 1 1 1 2 2 2
8 8 8 7 7 6 6 6 7 7 7 7 4 3 3 2 3 5 5 5 5 4 4 6 6 6 7 7 7 6 6 4 3 3 3 3 3 2 2 1 1 1 2
4 5 6 6 5 5 5 4 5 5 5 5 5 6 4 3 4 4 4 6 6 5 2 3 4 6 6 6 7 7 5 5 4 3 2 2 3 2 1 2 2 3 3
3 5 6 6 6 6 5 5 4 4 4 3 4 4 3 1 2 3 6 7 7 7 6 4 3 4 5 7 7 7 7 6 5 4 3 2 1 2 2 3 3 3 3
5 6 7 8 8 7 7 6 5 5 4 3 1 1 1 1 2 3 4 5 4 5 6 6 5 4 4 6 7 8 9 8 6 5 4 4 3 3 4 5 4 4 4
6 7 9 9 9 9 8 7 7 7 6 5 4 4 4 3 3 3 3 3 3 3 5 5 5 4 5 6 7 8 9 9 8 8 6 6 5 3 4 3 3 3 3
7 9 10 10 10 10 10 8 8 9 8 7 7 6 6 5 5 5 5 4 4 4 5 4 4 5 5 5 6 7 9 8 10 10 8 6 7 6 5 4 3 2 2
8 9 9 9 9 10 10 9 9 9 10 9 9 9 8 8 8 7 6 5 5 5 5 5 5 5 4 4 4 5 8 8 9 9 9 7 6 7 7 6 5 4 2
9 10 9 8 8 8 9 10 9 10 11 10 10 9 9 9 9 7 8 8 8 7 6 6 6 5 5 4 3 3 5 7 8 7 9 9 6 6 7 7 6 6 5
10 9 9 8 9 9 10 10 11 11 12 12 12 11 11 10 9 9 10 10 9 8 8 8 7 7 6 5 4 4 4 5 6 7 8 9 8 7 7 7 7 7 6
9 9 9 9 10 11 11 12 12 13 13 13 13 13 13 11 10 11 12 11 11 10 9 8 8 8 7 6 5 6 4 4 5 6 7 8 7 9 8 7 8 7 8
10 9 9 10 11 12 12 13 13 14 14 13 13 14 14 14 13 13 13 11 11 11 10 9 9 9 9 7 7 7 6 6 5 5 6 7 7 9 8 8 8 7 7
10 10 11 11 12 12 12 12 14 14 14 14 14 15 16 16 15 13 12 12 11 11 11 10 10 10 9 9 8 7 7 7 7 6 5 6 8 9 9 9 9 8 7
11 11 11 11 11 11 11 11 12 13 13 13 14 15 16 15 15 14 13 12 11 12 11 10 10 10 9 9 9 8 8 7 7 6 6 7 8 11 10 8 9 9 8
12 12 12 12 12 11 12 12 12 12 12 13 15 15 15 15 15 14 13 12 11 11 11 11 11 10 9 12 14 10 8 7 7 7 6 7 9 11 12 14 13 13 11
13 13 13 13 13 13 13 13 13 13 13 14 15 15 14 15 14 15 13 12 11 10 10 11 11 11 11 14 14 14 9 9 8 8 7 6 6 8 7 10 13 14 15
11 12 12 12 13 13 14 14 14 14 15 15 15 15 14 15 14 13 13 12 10 9 9 10 11 10 11 13 14 14 10 9 9 9 8 7 7 7 7 7 9 10 11
12 13 14 15 13 14 14 15 15 15 15 16 16 15 15 15 15 14 13 12 10 9 9 8 10 10 10 12 13 12 6 8 9 8 8 8 8 9 9 9 9 9 9
12 13 13 14 13 14 14 14 16 16 16 16 16 16 15 16 16 15 13 11 10 10 10 10 9 10 10 12 13 11 6 8 7 6 6 8 9 8 9 9 9 10 9
14 14 14 14 14 14 13 15 16 16 16 16 16 16 15 14 14 13 12 11 10 9 9 9 8 9 10 11 13 12 8 8 8 6 5 5 8 9 9 10 9 10 8
13 13 13 15 14 13 13 15 16 16 15 15 15 15 14 13 12 10 10 9 9 9 8 8 8 7 8 10 11 13 13 11 8 7 6 6 7 8 8 8 8 10 10
13 13 14 16 15 13 13 16 17 16 15 15 15 14 13 11 10 10 9 8 7 7 7 6 7 7 6 7 12 13 13 14 9 6 7 7 6 6 5 7 9 10 9
14 13 15 16 16 16 15 15 16 15 15 15 14 12 12 11 9 7 7 6 6 6 6 7 7 7 6 5 5 6 7 9 8 6 5 6 5 4 4 4 6 7 8
12 12 14 16 17 17 17 16 15 15 15 14 12 12 10 10 9 8 6 6 6 7 6 6 6 6 6 7 9 7 6 7 7 6 4 3 3 4 3 4 4 5 7
14 14 15 16 17 17 17 16 14 14 14 12 11 9 9 8 7 7 7 6 6 7 8 7 5 5 6 6 8 10 9 9 11 8 5 5 5 5 5 4 4 5 6
Wind_Direction
31 25 23 24 26 19 17 15 12 359 354 343 337 337 345 353 327 281 246 238 241 233 208 206 190 181 185 190 182 168 178 190 164 159 290 295 268 258 251 247 248 252 253
22 18 18 18 16 12 9 7 7 3 360 350 332 331 328 329 319 314 306 278 249 234 217 205 195 187 183 184 184 173 169 182 173 164 166 307 329 315 292 268 230 245 266
17 2 1 360 359 2 356 359 358 1 359 357 0 5 17 2 5 350 345 332 309 262 226 212 202 194 188 191 192 185 175 184 195 192 164 174 228 294 317 317 305 301 295
357 334 330 328 328 322 322 334 344 351 353 5 35 47 46 21 345 332 338 339 346 344 319 260 226 210 203 200 198 193 183 169 183 201 207 188 171 183 304 317 320 316 293
300 295 295 291 292 291 295 301 314 324 332 6 41 57 52 2 319 333 348 354 354 358 1 342 293 245 226 219 207 192 191 186 180 179 174 184 192 190 202 267 306 312 290
282 284 284 283 282 279 277 277 284 289 297 314 340 112 130 305 331 335 340 342 339 344 356 354 338 300 260 237 224 209 199 197 189 185 181 176 176 188 195 225 258 286 291
267 276 279 279 278 280 277 273 274 277 280 283 279 262 248 247 255 268 282 301 315 316 323 336 326 313 287 262 237 221 213 201 198 196 197 200 203 180 178 202 240 269 291
265 269 271 273 278 284 287 285 280 280 281 278 274 269 260 251 249 250 250 254 252 263 279 297 302 304 304 287 253 232 223 210 207 206 200 200 207 198 191 190 197 247 273
278 278 282 289 293 295 294 290 284 282 279 273 270 269 262 253 251 252 250 251 252 260 266 282 287 292 296 295 280 250 235 220 215 211 206 205 204 199 202 198 194 201 239
293 294 298 300 298 296 294 293 282 275 275 275 269 267 256 251 250 251 250 249 250 251 263 271 275 279 279 279 274 269 256 235 226 216 211 212 207 200 198 199 201 203 210
294 297 300 297 295 295 291 287 284 280 279 277 274 271 265 255 248 245 248 248 247 244 246 253 261 267 268 263 259 257 256 252 240 227 219 220 209 203 200 195 195 201 205
291 292 292 291 293 291 290 287 284 280 277 275 274 272 271 265 253 247 247 244 242 241 239 243 251 259 260 251 245 253 247 246 258 245 229 226 217 213 202 195 198 200 202
302 299 298 295 294 293 292 291 289 286 285 284 282 279 276 272 263 253 247 241 238 239 236 232 240 249 253 251 246 241 238 228 233 250 245 236 222 222 209 201 202 201 198
297 294 294 293 292 293 293 294 294 294 295 294 290 285 280 276 270 262 251 242 235 233 234 232 233 239 245 248 248 243 241 234 225 225 239 245 231 227 216 207 205 195 192
296 295 295 294 293 295 295 295 295 296 297 297 295 290 287 283 278 271 261 249 238 235 231 231 232 235 238 243 240 238 239 234 231 228 225 235 242 239 224 210 202 191 193
301 302 301 301 301 301 302 301 299 297 296 295 293 292 291 289 284 278 270 259 247 237 228 226 228 230 235 236 233 226 229 231 232 237 237 236 244 244 233 222 206 194 193
305 304 304 302 302 303 303 302 297 297 295 293 293 292 291 290 288 286 280 267 254 243 231 227 224 227 233 236 241 238 228 229 232 234 239 247 241 238 232 226 214 208 204
299 302 304 303 301 299 301 300 301 300 298 296 293 292 291 289 287 285 282 275 263 250 240 233 225 223 233 234 239 243 237 231 233 234 233 238 247 239 228 219 217 216 215
301 304 304 304 301 302 304 305 306 304 303 302 299 295 291 289 286 282 278 274 266 257 246 237 225 223 233 235 238 238 228 230 234 234 234 233 242 242 226 219 217 218 221
303 303 303 303 304 305 307 309 310 308 307 306 303 298 291 285 283 279 276 272 264 257 251 243 229 224 232 237 238 233 221 227 232 233 232 232 236 239 223 219 216 218 216
300 303 305 308 308 308 310 310 310 309 308 307 305 300 294 288 283 279 271 266 260 253 245 242 237 230 232 238 238 231 216 218 223 224 226 229 229 230 223 219 221 218 202
306 308 310 312 312 312 313 313 311 309 309 308 306 304 300 296 294 285 275 266 257 246 241 238 243 241 236 235 240 232 219 209 211 216 220 225 227 227 223 218 223 207 191
309 312 313 314 315 316 315 313 312 312 312 310 308 307 307 303 295 288 282 272 257 243 234 232 239 243 237 235 234 232 221 207 205 211 209 212 223 223 225 223 212 195 193
314 315 318 318 318 318 317 312 312 314 313 313 311 311 311 310 304 292 284 273 257 244 233 230 234 236 236 233 226 218 213 204 201 200 196 196 204 207 212 206 201 201 194
313 314 318 318 318 319 317 315 316 317 318 316 315 315 313 311 310 303 289 275 259 247 233 228 223 223 231 229 209 197 193 186 185 170 170 187 193 204 209 199 189 193 180
315 318 320 321 320 319 317 318 319 321 321 321 321 318 318 318 318 318 315 292 271 263 240 235 231 232 236 238 210 204 196 177 164 162 183 195 199 204 205 193 179 183 170
Height
1511 1510 1509 1508 1507 1506 1504 1502 1500 1498 1495 1492 1489 1484 1481 1481 1483 1485 1489 1493 1495 1497 1498 1499 1499 1499 1499 1500 1500 1500 1500 1500 1501 1502 1502 1502 1501 1501 1502 1503 1504 1505 1506
1513 1512 1511 1510 1509 1507 1505 1504 1501 1498 1496 1493 1491 1488 1487 1486 1485 1487 1489 1491 1493 1494 1495 1496 1496 1496 1496 1496 1496 1496 1496 1497 1497 1498 1498 1498 1498 1497 1498 1498 1499 1500 1501
1517 1516 1514 1513 1511 1509 1507 1505 1502 1500 1497 1494 1492 1490 1489 1488 1488 1488 1488 1488 1489 1490 1491 1491 1492 1493 1493 1493 1493 1493 1493 1493 1494 1494 1495 1495 1494 1495 1496 1496 1496 1497 1498
1519 1519 1517 1515 1513 1511 1508 1506 1503 1500 1497 1494 1492 1490 1488 1487 1486 1485 1484 1484 1484 1484 1485 1486 1488 1489 1489 1489 1489 1489 1489 1490 1490 1491 1491 1492 1492 1493 1493 1494 1494 1494 1494
1521 1520 1519 1517 1514 1511 1509 1506 1503 1500 1497 1494 1491 1489 1487 1486 1484 1483 1481 1480 1480 1479 1479 1480 1481 1483 1484 1485 1486 1486 1486 1486 1486 1487 1488 1488 1489 1489 1490 1490 1491 1491 1490
1522 1521 1519 1517 1514 1511 1508 1505 1502 1499 1496 1493 1490 1488 1486 1484 1482 1480 1479 1477 1476 1475 1474 1474 1474 1476 1477 1478 1480 1481 1482 1482 1482 1483 1484 1485 1485 1486 1486 1487 1486 1486 1486
1522 1520 1518 1515 1512 1509 1506 1503 1499 1497 1494 1491 1488 1486 1483 1481 1479 1477 1475 1474 1472 1471 1470 1469 1469 1469 1470 1471 1473 1475 1476 1477 1478 1479 1480 1481 1482 1483 1483 1484 1483 1483 1482
1521 1519 1516 1513 1509 1506 1503 1499 1496 1493 1490 1488 1485 1482 1480 1478 1475 1473 1471 1470 1468 1467 1466 1464 1464 1463 1463 1464 1465 1467 1469 1471 1473 1474 1475 1476 1478 1479 1480 1481 1481 1480 1480
1519 1516 1513 1510 1506 1502 1499 1495 1492 1489 1486 1483 1480 1478 1475 1473 1471 1469 1467 1465 1463 1462 1460 1459 1458 1457 1457 1457 1457 1459 1461 1464 1466 1468 1470 1471 1473 1474 1476 1477 1478 1478 1477
1517 1513 1510 1506 1503 1499 1496 1492 1488 1484 1481 1478 1475 1471 1469 1467 1464 1462 1461 1459 1458 1456 1455 1454 1453 1452 1451 1451 1450 1451 1453 1455 1458 1461 1463 1465 1467 1469 1471 1472 1473 1474 1475
1514 1510 1506 1503 1500 1496 1493 1488 1484 1480 1476 1472 1469 1465 1462 1459 1457 1455 1453 1452 1451 1450 1449 1448 1447 1446 1445 1444 1444 1445 1446 1447 1450 1453 1456 1459 1462 1464 1465 1467 1469 1470 1470
1510 1507 1503 1500 1496 1492 1488 1483 1479 1474 1470 1465 1461 1458 1454 1450 1448 1446 1445 1444 1443 1442 1442 1442 1441 1440 1439 1439 1438 1438 1438 1440 1442 1445 1448 1451 1454 1457 1460 1462 1463 1465 1466
1507 1503 1500 1496 1491 1487 1482 1477 1472 1467 1462 1458 1453 1449 1445 1442 1439 1437 1436 1435 1434 1434 1434 1434 1434 1434 1434 1433 1432 1432 1432 1433 1434 1437 1439 1443 1446 1450 1453 1455 1458 1460 1461
1503 1499 1495 1490 1486 1480 1475 1470 1464 1459 1454 1449 1444 1439 1436 1432 1429 1427 1426 1425 1425 1425 1425 1426 1426 1427 1427 1427 1427 1427 1427 1427 1428 1430 1432 1435 1438 1442 1445 1449 1451 1454 1456
1498 1494 1489 1484 1479 1473 1467 1462 1456 1451 1446 1440 1435 1430 1426 1422 1419 1417 1415 1415 1415 1416 1417 1417 1418 1419 1420 1420 1421 1422 1422 1422 1423 1425 1426 1428 1431 1434 1437 1441 1444 1447 1450
1493 1488 1483 1477 1472 1466 1460 1453 1447 1442 1437 1431 1425 1420 1416 1412 1408 1406 1405 1404 1404 1405 1407 1408 1410 1411 1412 1414 1415 1416 1417 1418 1419 1420 1421 1423 1425 1427 1430 1433 1437 1440 1443
1488 1483 1477 1471 1465 1459 1452 1445 1439 1433 1428 1422 1416 1411 1407 1402 1399 1396 1394 1393 1394 1395 1397 1399 1401 1402 1405 1407 1408 1410 1411 1412 1413 1415 1416 1417 1419 1421 1423 1426 1430 1433 1436
1483 1477 1471 1464 1458 1452 1445 1438 1432 1426 1420 1414 1409 1403 1398 1394 1390 1387 1384 1383 1384 1385 1387 1389 1392 1394 1397 1399 1401 1403 1405 1406 1408 1409 1411 1412 1413 1415 1417 1420 1422 1425 1429
1479 1472 1465 1458 1451 1445 1439 1432 1425 1420 1413 1407 1401 1396 1390 1385 1381 1378 1375 1374 1375 1375 1377 1380 1383 1385 1388 1392 1394 1397 1398 1400 1402 1404 1405 1406 1407 1409 1411 1413 1415 1418 1422
1474 1467 1459 1452 1446 1439 1433 1426 1420 1414 1407 1401 1395 1388 1383 1378 1373 1369 1367 1366 1366 1367 1369 1371 1374 1377 1380 1384 1387 1389 1391 1393 1396 1398 1400 1401 1402 1403 1404 1406 1409 1412 1416
1468 1461 1454 1447 1440 1434 1428 1421 1415 1408 1402 1395 1388 1382 1376 1370 1365 1361 1359 1358 1358 1359 1360 1363 1366 1369 1372 1375 1379 1381 1384 1387 1389 1392 1394 1396 1397 1397 1399 1400 1403 1406 1411
1463 1456 1449 1442 1435 1429 1423 1416 1409 1403 1396 1389 1383 1376 1370 1365 1360 1356 1353 1351 1351 1351 1353 1355 1358 1361 1365 1368 1371 1374 1377 1380 1383 1386 1388 1390 1392 1392 1394 1395 1397 1401 1405
1458 1452 1445 1437 1431 1425 1419 1411 1405 1398 1391 1385 1378 1372 1366 1360 1355 1351 1348 1346 1346 1346 1347 1349 1352 1355 1358 1361 1364 1367 1371 1374 1377 1380 1383 1385 1386 1387 1388 1390 1392 1395 1399
1454 1447 1440 1433 1427 1421 1414 1408 1401 1394 1387 1381 1374 1368 1362 1356 1352 1348 1345 1342 1341 1341 1342 1344 1346 1349 1352 1355 1359 1362 1366 1369 1372 1375 1378 1380 1381 1382 1384 1385 1387 1390 1394
1451 1444 1437 1430 1423 1417 1410 1404 1397 1391 1384 1378 1372 1366 1360 1354 1350 1346 1342 1340 1339 1338 1338 1340 1342 1345 1347 1351 1354 1358 1361 1365 1368 1371 1373 1375 1377 1378 1379 1381 1382 1385 1390
1448 1441 1435 1428 1421 1414 1407 1400 1394 1388 1382 1375 1370 1364 1359 1354 1349 1345 1342 1339 1337 1336 1336 1337 1340 1342 1345 1348 1351 1354 1358 1362 1365 1367 1369 1371 1373 1374 1376 1377 1379 1382 1385